Theta_e
312 312 313 313 313 311 311 310 310 309 308 308 306 310 302 300 297 307 309 310 307 301 295 297 296 295 295 298 296 297 295 294 297 295 296 294 298 297 295 297 296 298 296 296 296 297 296 299 299 302 304 302 303 305 306 308 310 311 310 311 312 317 308 306 307 311 311 313 314 314 314 312 309 310 311 310 307 308 306 306 309 305 305 302 303 301 307
312 312 313 313 312 311 311 309 310 309 308 309 309 305 300 300 299 303 308 310 307 299 290 290 292 294 296 296 294 298 297 296 295 294 295 294 296 294 294 296 298 296 299 296 294 297 292 300 300 300 303 302 305 305 305 307 307 307 307 307 313 305 308 307 303 304 305 307 310 309 312 311 308 307 309 310 311 311 310 311 312 306 306 306 302 298 304
312 313 313 312 312 311 310 309 310 310 309 310 308 302 302 300 302 302 303 308 305 295 296 294 292 293 294 293 293 294 295 298 297 296 295 298 296 293 294 298 298 296 298 296 298 299 296 294 301 301 300 301 305 305 305 306 305 307 309 311 310 306 307 305 301 298 296 296 297 299 302 305 308 310 310 310 309 309 308 304 307 300 310 310 305 304 311
312 312 312 312 312 311 310 310 310 310 310 309 308 306 302 297 292 297 299 302 303 300 301 299 295 294 295 292 294 294 293 296 298 298 296 297 296 296 297 299 298 295 297 294 295 296 299 296 295 297 299 301 304 304 304 305 305 308 312 311 310 306 309 308 306 305 303 305 313 311 311 308 305 307 309 309 310 311 310 309 305 302 307 307 310 311 311
312 312 312 312 312 310 310 310 310 310 309 309 308 306 302 300 294 293 292 297 300 296 298 297 297 294 296 291 294 292 294 294 294 299 293 297 296 295 297 296 293 294 294 294 294 296 296 298 296 296 296 299 300 305 304 305 306 308 309 309 309 308 304 307 309 308 311 309 310 309 311 308 308 307 307 310 309 309 308 305 304 313 306 300 310 314 310
312 312 312 312 311 311 311 311 310 309 309 308 310 300 301 293 296 298 299 292 290 291 293 296 296 297 296 293 295 293 293 293 291 296 297 297 299 292 293 294 295 295 292 293 291 294 293 295 293 296 297 297 301 302 304 304 306 307 306 309 307 305 303 308 309 308 309 312 307 309 309 310 309 309 308 308 309 308 306 308 309 311 306 304 311 315 312
312 312 312 312 311 311 311 311 310 309 309 308 308 298 301 300 299 298 301 293 295 295 295 296 296 295 296 293 293 292 292 291 294 293 294 295 293 294 288 291 294 295 295 293 290 294 290 290 293 294 293 295 297 299 302 304 306 305 304 306 309 306 304 307 308 307 309 309 308 310 307 308 308 309 309 310 309 309 308 308 310 310 311 311 314 315 311
312 312 312 312 312 312 312 311 310 310 307 309 305 302 297 295 294 293 299 298 295 296 296 296 295 293 295 290 293 293 292 292 294 295 294 290 291 296 290 291 294 295 294 294 290 292 292 291 289 294 294 294 297 294 296 295 302 304 302 304 308 304 303 305 306 305 306 308 308 308 308 307 307 309 309 309 309 310 310 309 310 311 310 311 311 314 313
312 313 313 313 312 312 312 312 311 310 308 305 302 301 303 301 303 301 295 292 295 296 296 294 294 292 294 292 293 293 294 293 295 294 297 294 291 294 293 294 294 295 293 292 292 295 294 294 294 296 295 292 297 293 294 298 297 302 302 304 304 304 302 304 304 301 301 305 305 306 307 306 306 307 308 308 308 307 308 308 310 309 308 310 310 309 310
312 313 313 313 313 312 311 311 311 309 308 304 303 298 305 303 306 306 298 290 296 293 295 295 294 290 294 293 293 293 294 296 296 292 295 297 298 296 295 296 294 293 293 292 294 296 297 296 297 298 299 300 299 300 299 299 298 299 300 304 300 303 301 300 301 298 300 304 306 305 305 305 302 303 307 309 309 310 310 311 312 312 312 309 307 309 315
312 313 312 312 313 312 312 312 312 311 309 304 301 301 302 300 299 301 300 290 293 294 293 292 292 295 295 295 294 296 296 296 295 290 291 296 296 298 297 297 295 292 293 296 301 301 301 300 300 301 300 299 299 300 300 300 301 301 300 299 302 303 301 300 304 298 299 304 304 305 301 295 297 310 312 311 309 309 308 308 310 312 313 312 314 315 318
313 313 313 313 313 312 312 312 312 310 309 309 307 303 305 307 303 300 295 289 290 294 292 291 293 295 295 297 296 295 295 295 295 298 294 295 297 298 298 296 295 291 299 304 302 301 302 302 301 301 300 299 299 300 300 299 300 304 302 299 299 299 301 300 303 298 299 302 301 298 293 295 309 311 313 313 312 311 310 310 311 312 313 313 312 314 316
312 312 312 312 312 312 312 312 312 311 309 311 306 301 307 310 303 298 295 292 290 292 290 292 296 296 297 296 296 296 296 297 298 298 297 296 296 297 298 297 296 298 303 301 301 299 295 293 296 296 297 298 298 299 298 298 298 300 301 303 300 297 299 301 299 300 301 300 298 291 294 306 308 310 312 315 313 312 311 308 311 312 313 314 312 314 315
312 312 312 312 312 312 312 312 312 312 310 310 306 305 308 307 301 298 295 290 290 294 295 293 295 295 295 295 295 295 297 297 298 298 295 297 296 296 298 299 301 303 303 303 300 299 295 295 290 291 292 295 294 293 296 298 299 298 299 300 301 300 301 299 297 302 295 298 298 297 306 303 306 307 309 312 309 310 308 304 308 313 314 314 314 315 316
312 312 313 313 313 313 312 312 313 312 312 310 310 308 307 307 305 301 301 295 288 293 295 290 293 295 295 296 296 294 295 296 295 296 299 299 297 299 300 301 304 303 304 300 295 297 294 292 289 287 289 288 285 288 296 294 299 300 300 300 301 302 298 300 296 297 299 297 296 297 297 295 301 309 315 318 318 315 315 311 308 315 315 316 316 316 318
312 312 312 312 312 312 312 313 313 312 311 309 311 309 309 309 309 306 300 294 291 285 293 298 297 296 294 294 296 295 294 294 295 295 294 296 296 299 302 303 304 304 302 299 297 293 293 288 286 287 286 288 291 291 291 294 294 298 300 300 299 300 301 300 297 296 297 296 294 294 294 298 308 309 313 317 319 318 318 311 306 319 319 321 320 318 321
312 312 312 312 312 312 312 313 313 312 311 309 309 309 307 311 308 304 299 296 293 288 298 299 298 297 294 294 296 296 298 294 294 291 291 292 295 297 298 302 304 302 300 297 295 293 291 291 293 290 290 292 288 289 294 293 292 294 297 298 296 296 296 296 294 295 296 296 294 293 300 300 307 312 313 315 316 315 313 299 302 322 323 323 324 321 323
312 312 312 312 313 313 313 313 313 313 311 311 310 308 307 311 310 307 301 296 291 292 297 300 297 294 293 295 294 297 298 298 298 299 295 296 297 296 298 299 297 301 302 293 294 290 291 290 286 287 286 293 293 294 287 292 290 292 292 293 292 292 294 295 291 293 294 294 295 298 301 307 307 312 315 315 316 312 303 296 311 323 324 326 323 324 326
312 312 312 313 313 313 313 313 313 313 313 310 312 311 310 311 311 309 303 297 294 289 298 301 302 299 301 302 299 299 299 298 298 293 294 292 293 299 299 300 300 294 300 293 294 288 287 289 293 291 289 292 293 289 295 290 290 294 296 292 293 293 294 294 295 292 292 295 293 294 300 307 309 314 314 316 309 300 301 315 324 324 323 324 325 326 328
312 312 312 313 313 313 313 313 313 313 313 311 311 307 311 311 311 309 303 297 298 295 298 300 301 299 303 298 296 296 297 298 298 295 294 290 299 299 295 292 296 296 294 295 288 293 290 287 288 293 290 290 291 298 292 294 297 293 294 298 293 294 292 291 291 294 294 296 293 292 287 304 309 310 310 312 304 311 317 320 323 322 323 323 324 325 331
312 312 312 313 313 313 313 313 313 313 314 313 310 308 307 313 311 311 311 306 300 293 296 303 303 301 302 301 301 301 299 295 297 293 297 296 300 296 287 288 293 296 292 293 287 288 289 288 290 290 295 293 293 293 288 292 293 299 298 296 296 302 294 293 295 297 290 291 290 291 300 310 311 310 305 315 315 317 321 318 317 321 322 324 322 327 331
312 312 312 313 313 313 313 313 313 313 313 313 310 310 305 312 312 311 310 310 301 296 299 303 305 305 306 306 306 306 304 303 303 302 298 296 300 297 297 298 297 298 300 299 294 293 295 293 294 292 290 291 296 290 296 290 287 296 300 299 291 301 297 301 294 302 297 294 297 308 308 311 312 313 313 316 317 318 321 321 320 320 323 328 326 328 329
312 312 312 312 313 313 313 313 313 313 313 314 312 311 307 311 310 312 310 301 304 304 305 304 305 306 307 308 310 310 309 309 307 306 305 299 296 299 297 297 297 302 303 302 296 295 295 295 292 296 293 295 293 293 295 293 292 295 292 299 298 302 303 305 302 300 305 306 306 309 309 310 311 312 314 313 314 316 317 320 321 325 326 327 326 328 330
312 312 312 312 313 313 313 313 313 313 313 313 312 311 310 312 312 310 305 303 300 296 300 303 300 298 300 300 305 308 308 308 308 308 308 305 295 296 300 300 301 300 301 304 305 297 296 296 296 298 291 297 298 291 288 287 291 296 295 294 298 301 302 301 297 302 296 292 306 306 307 309 309 310 311 313 314 314 315 319 324 325 326 327 328 329 328
312 312 312 313 313 313 313 313 313 313 313 313 313 315 314 312 313 308 302 296 297 295 290 296 299 304 306 307 308 307 308 309 309 308 307 306 303 297 296 302 303 299 300 303 306 301 301 295 296 296 291 298 298 290 297 294 291 299 292 295 296 297 304 298 299 299 296 297 304 307 308 309 309 309 309 311 313 314 318 322 323 324 326 327 329 330 329
312 312 312 312 312 313 313 313 312 312 312 312 313 311 312 310 313 312 308 305 306 300 292 292 298 307 309 306 303 305 308 308 308 307 307 306 306 306 304 304 303 306 304 303 301 298 297 297 296 295 293 294 303 295 294 299 296 300 296 295 299 301 303 295 300 297 300 303 304 305 306 307 307 309 310 312 312 317 319 321 320 320 322 323 325 328 329
312 312 312 312 312 312 312 312 312 312 312 312 313 314 314 314 314 309 305 303 298 293 295 292 298 302 305 303 307 308 308 308 307 306 306 306 306 306 305 304 302 302 301 300 301 299 298 296 295 293 297 297 301 298 299 297 297 295 294 298 302 299 295 299 299 295 295 296 300 304 298 298 304 308 309 312 316 317 316 317 319 320 321 321 321 323 327
312 312 312 312 312 312 312 312 312 312 311 312 313 313 316 313 314 313 312 309 301 295 296 296 297 300 305 302 306 307 308 308 307 306 305 305 305 305 303 303 302 299 299 297 295 295 295 293 293 298 299 300 296 295 300 301 300 297 296 298 301 297 300 299 296 295 294 301 304 305 305 305 307 309 312 313 314 313 313 315 317 318 319 320 320 321 323
312 312 312 311 311 311 312 312 312 312 312 310 314 313 314 315 314 313 312 311 308 301 299 299 301 300 295 301 307 306 308 307 306 305 305 304 304 304 303 303 301 301 300 299 298 297 295 295 298 296 295 300 297 294 296 291 293 291 296 302 302 303 305 302 302 303 303 305 305 306 305 303 307 309 311 312 313 312 314 315 316 317 318 319 320 321 323
311 311 311 311 311 311 311 311 312 312 312 315 313 309 306 307 313 314 313 312 310 306 296 294 292 298 306 305 303 305 305 307 306 305 304 303 303 303 303 302 302 302 301 298 297 293 296 296 297 299 301 304 296 295 292 293 293 295 302 304 303 304 305 305 306 303 302 306 306 307 307 307 309 310 311 312 313 314 313 314 315 316 317 318 319 321 325
311 311 311 311 311 311 311 311 312 311 311 314 309 302 300 297 306 314 313 312 312 306 300 299 294 300 300 306 305 303 305 306 305 304 304 304 304 304 304 304 303 302 298 298 297 297 297 294 295 297 301 301 299 294 291 291 290 294 300 303 304 303 304 304 306 307 306 306 306 307 307 307 309 309 309 310 311 313 313 315 317 318 318 320 322 324 325
311 311 310 310 310 311 311 310 312 312 316 312 307 306 306 308 313 314 313 312 313 305 298 293 293 295 296 300 304 307 306 306 305 305 305 305 302 304 303 303 300 303 300 298 299 298 296 297 296 296 295 300 299 294 293 290 288 290 298 300 303 304 306 305 305 306 307 307 306 304 303 304 306 306 305 311 312 314 315 316 318 319 320 321 324 327 329
311 310 310 310 311 311 311 313 311 314 316 312 308 309 308 307 308 312 313 313 308 302 302 296 291 294 294 297 302 305 307 305 304 305 302 306 303 305 302 303 302 301 304 299 296 294 299 298 298 295 299 302 296 294 292 290 292 297 299 300 300 301 302 303 303 304 305 306 306 301 300 303 306 309 310 310 311 312 313 314 315 316 319 322 324 326 326
311 310 309 310 311 311 312 312 311 310 310 312 310 310 314 309 311 309 314 312 306 304 302 294 290 290 292 301 295 303 307 300 299 302 298 307 307 304 302 302 304 298 302 296 299 298 300 299 296 297 300 297 300 293 287 292 297 299 300 301 302 302 303 303 304 304 305 306 307 307 307 308 309 310 311 311 312 313 314 315 316 318 322 323 323 323 323
310 310 310 309 311 312 312 311 314 314 311 310 312 316 314 310 310 311 311 309 298 296 295 295 295 289 290 293 292 298 307 302 297 303 298 304 310 302 303 299 301 294 299 305 299 298 295 297 301 293 290 298 293 288 291 295 298 300 301 301 303 303 303 301 302 303 305 306 306 307 308 308 307 307 308 309 310 313 316 318 321 322 321 321 321 322 321
310 310 311 312 310 312 315 312 316 315 311 310 311 314 312 311 310 312 312 311 304 297 294 293 294 289 290 286 287 297 305 300 303 303 303 305 303 306 306 301 292 299 304 299 293 298 293 300 296 288 296 289 288 291 293 296 296 298 299 300 301 302 302 302 303 305 306 305 305 306 307 307 306 307 308 309 310 311 312 315 319 320 319 318 318 320 320
310 311 311 310 313 313 313 316 317 314 313 315 315 314 313 312 312 311 308 306 308 307 298 294 289 290 291 291 295 299 302 295 303 301 304 300 298 303 300 297 291 299 298 295 295 293 298 304 293 289 289 287 289 295 299 301 301 302 304 306 307 307 306 306 308 307 305 305 305 304 306 307 307 308 308 308 309 310 311 315 318 318 316 316 317 318 321
309 309 314 314 314 313 313 314 314 314 313 312 312 309 307 308 303 303 303 301 305 304 301 298 291 295 298 294 292 304 302 299 305 299 300 303 300 297 301 296 296 297 288 291 295 304 299 296 290 287 289 295 297 300 301 302 304 306 307 309 310 311 311 311 311 309 307 305 304 305 306 307 307 308 308 308 309 310 314 318 319 319 320 320 320 321 322
310 315 315 320 315 310 310 316 319 313 315 314 312 308 306 307 305 302 304 305 305 302 303 298 298 301 297 296 300 308 302 299 299 302 297 302 299 295 301 292 299 297 291 291 295 303 290 291 290 288 287 295 298 300 303 303 305 307 309 313 314 317 318 318 318 316 312 309 309 310 309 307 307 308 309 310 311 314 317 318 319 317 317 319 320 321 321
322 319 316 314 312 315 319 315 314 314 315 309 309 309 304 309 304 298 309 300 300 306 307 301 307 306 304 301 299 302 309 303 298 297 300 301 306 296 299 299 299 293 288 289 293 301 290 287 290 289 289 296 299 303 303 303 303 305 308 310 312 313 315 315 317 317 314 314 316 316 314 313 313 311 310 312 315 317 318 317 320 320 318 320 322 322 321
318 319 316 313 315 319 322 321 319 318 313 309 308 309 306 298 307 309 308 302 301 304 311 306 307 308 308 307 305 301 310 310 308 307 304 298 305 303 300 291 301 291 289 290 301 300 293 290 289 288 291 299 300 303 304 303 304 305 307 309 311 311 312 314 314 315 317 317 316 314 314 315 313 315 316 316 318 320 320 319 321 323 323 323 320 321 322
318 316 316 319 322 322 320 319 317 313 311 311 303 295 302 303 306 306 306 298 298 304 305 309 302 303 306 308 310 311 312 313 310 308 303 298 305 302 300 301 300 291 288 298 304 298 292 287 288 289 296 301 303 304 304 303 304 304 306 307 309 309 310 310 310 311 313 314 314 313 315 318 319 318 319 319 321 321 319 319 319 322 321 324 323 321 321
304 309 315 320 321 318 317 305 311 310 295 295 294 292 300 295 299 299 301 305 309 307 305 315 313 316 315 315 312 314 312 315 308 308 305 300 309 305 299 295 296 288 294 306 298 291 288 287 288 294 300 302 305 305 305 305 306 305 306 307 307 309 309 309 309 309 310 310 311 311 312 313 313 315 317 319 320 320 320 320 318 317 318 317 317 318 318
322 321 321 315 309 311 312 292 309 305 295 298 295 291 297 296 299 304 301 300 305 306 308 305 304 303 299 307 306 307 310 313 312 313 304 308 303 298 297 291 291 300 305 296 293 287 289 292 295 298 302 304 306 306 305 305 306 306 306 306 308 308 307 307 308 308 308 309 309 309 310 310 310 310 311 311 312 311 311 314 316 316 317 317 317 317 317
316 309 306 305 299 305 300 290 305 297 291 296 298 298 299 297 301 302 301 306 308 304 309 309 307 303 300 306 313 306 307 305 311 305 299 303 298 299 295 293 298 298 293 288 291 291 292 291 299 302 303 304 306 306 308 308 307 306 306 307 307 307 307 306 306 306 306 307 308 308 307 308 308 310 310 310 310 310 309 310 312 313 314 314 314 314 315
310 303 300 295 291 297 298 293 295 293 301 302 301 302 302 304 304 303 308 310 309 308 306 307 309 307 302 307 303 300 305 306 302 301 303 302 295 292 299 302 299 292 290 289 286 285 289 295 299 302 306 307 307 308 309 307 307 308 307 305 306 307 308 308 307 307 307 307 308 308 308 308 308 308 307 308 308 307 307 308 309 309 310 309 310 311 312
308 312 305 300 294 298 306 294 297 301 302 304 304 305 304 306 308 308 309 310 308 310 309 310 311 309 304 304 305 303 304 304 299 300 302 296 295 297 302 296 289 289 285 284 285 288 293 298 301 303 303 306 307 309 309 309 309 307 307 308 308 307 308 308 308 308 308 308 308 307 307 307 307 307 307 306 306 306 308 307 308 310 310 308 310 310 309
299 308 305 294 292 298 297 301 306 306 306 307 306 307 307 308 307 305 309 310 310 309 308 309 306 307 305 308 307 301 303 303 300 298 301 297 299 295 291 292 289 290 290 288 289 296 298 301 303 304 306 309 308 309 309 310 310 309 309 307 307 308 308 307 307 308 308 308 308 307 307 307 306 305 305 306 307 308 308 307 308 309 309 309 310 308 307
313 302 299 297 303 304 302 304 305 302 303 306 306 306 305 305 305 306 309 312 309 308 310 308 306 305 300 304 302 301 297 302 295 293 300 297 292 288 289 285 287 286 293 296 296 298 300 303 305 306 307 306 306 307 309 310 310 309 308 308 309 310 310 310 310 310 311 310 310 309 308 308 307 306 305 305 305 306 308 309 309 309 309 309 309 309 309
302 301 306 301 303 303 306 306 304 301 303 304 304 304 305 305 304 307 311 309 309 308 309 308 307 302 301 303 295 298 296 300 298 296 296 293 293 294 293 286 288 290 293 298 298 300 303 306 308 308 308 308 309 308 308 308 310 311 310 310 311 311 311 311 309 310 310 310 310 309 308 308 308 307 306 306 307 308 308 308 309 309 309 309 309 308 308
310 303 304 309 303 302 304 298 298 299 300 301 303 303 304 304 305 306 310 309 308 307 305 301 302 300 296 295 293 290 292 301 297 295 294 293 296 295 291 289 292 296 299 303 304 305 305 305 306 307 308 309 308 307 307 308 308 308 310 312 311 310 310 311 310 309 308 309 309 310 307 307 307 307 308 308 307 307 306 307 307 308 307 307 308 307 307
301 299 302 306 307 307 306 306 305 303 303 304 304 305 307 304 307 308 312 309 307 302 300 303 300 297 293 292 295 299 302 298 294 296 293 296 299 294 294 295 298 300 300 301 304 305 304 305 307 307 309 308 308 309 308 308 308 308 310 310 310 310 310 309 309 309 309 309 309 309 308 309 309 308 308 307 306 305 304 305 306 306 306 305 306 307 307
Wind_Speed
16 16 16 16 16 16 15 17 18 19 21 14 14 13 8 8 9 7 7 12 13 10 4 5 5 5 6 8 7 7 7 9 8 10 8 9 7 9 10 13 14 14 15 15 14 14 12 14 12 11 3 6 5 9 12 13 11 4 7 14 16 7 8 8 13 13 14 18 18 20 20 21 21 20 19 17 17 17 13 10 8 10 11 11 8 8 3
15 15 15 15 15 15 15 15 16 18 17 14 13 11 9 10 9 7 8 11 11 7 7 8 7 7 8 9 10 6 8 9 10 10 11 8 8 9 9 11 9 14 16 15 13 10 11 12 17 11 5 3 7 7 11 13 7 5 5 4 4 11 12 11 9 10 11 14 15 16 19 18 16 16 19 20 18 18 16 10 8 10 12 12 10 9 9
14 14 14 14 14 14 14 14 15 16 17 14 11 10 11 9 7 4 8 8 8 6 6 7 8 9 10 12 11 9 7 5 8 11 10 8 7 10 8 9 12 11 13 15 15 14 15 13 11 9 12 5 8 5 7 10 8 8 9 11 9 7 12 14 14 15 16 16 17 18 19 21 15 18 21 24 24 22 16 15 11 8 8 12 9 8 7
13 13 14 13 14 13 13 13 14 15 15 16 12 9 10 10 10 8 8 8 5 3 4 5 8 8 9 10 8 9 10 7 8 7 8 6 10 9 10 8 10 9 13 13 12 14 15 15 8 9 8 9 4 5 8 6 9 12 16 14 8 7 8 15 15 13 13 5 2 6 16 14 19 21 23 24 24 22 18 12 12 12 9 9 8 7 11
13 14 14 13 13 13 13 12 12 14 15 12 11 10 8 9 7 10 10 9 4 9 7 7 7 8 9 8 7 10 10 9 7 7 8 6 9 8 5 7 8 8 11 11 13 14 16 19 15 11 12 8 13 8 8 8 7 15 13 4 6 5 10 13 21 23 4 7 5 10 9 17 21 20 23 22 25 23 22 17 14 9 9 10 9 11 8
15 15 15 14 13 13 13 12 12 13 14 15 10 9 8 6 7 8 5 8 9 11 7 9 10 11 11 8 8 9 9 9 9 7 5 11 3 6 4 8 7 9 9 12 9 10 15 11 12 17 13 13 10 10 8 5 7 10 7 5 5 6 11 13 12 23 16 7 6 8 6 13 13 23 22 24 24 26 25 21 17 14 12 8 10 11 12
17 16 16 16 14 13 12 12 11 12 14 13 8 7 7 7 8 8 8 10 9 10 13 13 11 12 10 7 8 9 8 10 8 8 9 9 7 10 7 6 8 10 9 8 9 10 9 6 14 10 12 12 12 7 4 5 2 6 6 5 4 5 7 10 18 16 16 10 11 8 9 7 8 11 22 21 22 24 25 21 19 18 12 11 5 13 16
18 17 17 17 14 13 13 13 10 9 13 11 9 7 9 7 8 5 8 10 11 11 10 9 10 8 6 7 4 5 8 10 9 7 9 10 3 1 7 10 9 9 9 8 9 10 11 10 10 13 14 15 6 11 10 12 15 9 7 5 3 6 6 10 5 8 16 13 8 8 9 5 8 10 14 22 22 19 21 21 20 18 16 14 13 8 8
19 19 18 17 16 14 13 12 10 7 7 9 5 9 8 8 7 7 9 11 8 9 8 9 9 7 6 7 4 8 8 10 9 10 10 9 7 7 11 11 13 8 7 11 11 10 10 10 11 11 13 12 12 8 8 13 12 9 7 4 7 6 5 4 7 10 11 12 14 12 10 9 12 11 10 8 16 22 20 18 17 18 17 16 15 13 10
19 19 19 19 17 15 13 12 10 6 2 5 3 6 8 10 8 6 6 10 11 11 9 10 8 7 4 5 9 8 11 10 9 9 5 5 6 9 10 12 11 10 7 9 13 12 11 11 12 11 12 14 14 12 12 12 12 8 8 6 8 5 6 5 8 9 9 13 13 12 9 9 12 17 14 13 12 9 7 9 8 11 9 12 12 9 5
20 20 20 20 19 18 16 14 12 8 3 6 5 6 8 7 7 7 6 10 11 10 9 8 9 6 8 7 9 10 11 11 8 9 6 8 11 9 10 12 10 9 9 6 5 9 12 12 13 13 14 15 17 14 12 14 12 10 8 7 8 6 5 8 2 8 10 11 13 13 12 16 16 9 11 14 15 14 14 13 14 12 10 8 6 6 6
20 21 21 20 20 19 17 15 13 11 7 7 6 8 7 6 6 5 6 6 11 11 9 9 8 10 12 11 11 11 11 11 10 8 12 11 13 12 11 10 9 9 8 8 9 11 13 14 16 15 17 17 16 16 17 17 14 11 9 10 8 9 8 6 2 6 9 11 4 10 17 18 4 5 12 16 17 15 16 14 14 14 14 15 13 11 9
21 22 23 23 22 20 17 16 14 12 10 5 5 9 6 3 3 5 7 8 10 10 10 11 12 14 13 13 11 10 11 11 11 11 12 13 12 11 8 9 10 9 8 10 10 9 11 11 11 12 13 14 15 17 18 18 17 15 12 10 8 8 8 8 6 6 9 8 11 10 10 3 8 8 2 4 12 21 19 18 19 18 16 14 14 14 12
25 25 24 23 23 22 20 18 16 14 13 8 6 9 7 4 6 6 5 5 9 10 11 13 12 9 10 10 11 12 11 12 10 9 11 8 10 11 9 8 8 8 9 9 10 9 9 6 8 7 10 11 12 13 17 18 18 17 16 14 9 10 7 7 9 6 8 6 10 10 6 3 5 6 7 5 7 6 13 14 16 18 17 16 13 13 14
23 23 22 23 23 22 20 18 16 17 15 13 7 8 8 9 7 5 4 5 9 12 11 10 9 11 13 12 11 10 9 9 9 7 7 9 9 6 8 8 8 9 8 9 7 6 8 7 8 7 7 9 10 11 12 13 14 19 16 14 12 9 9 6 7 9 9 9 11 10 13 10 10 8 4 2 2 6 6 10 8 11 12 13 13 9 4
24 25 24 24 23 22 22 20 18 17 15 13 8 9 9 10 9 5 5 5 5 8 6 5 10 13 12 11 11 11 9 8 8 8 9 5 4 6 7 7 7 7 9 8 6 7 7 8 8 7 7 6 7 9 10 11 12 17 16 15 14 12 10 11 10 9 10 11 13 13 12 10 4 10 13 9 4 6 4 7 10 4 3 3 6 8 9
26 26 24 23 23 22 21 20 18 17 16 13 9 8 7 9 7 7 6 6 6 11 11 15 14 12 10 9 8 6 4 7 7 8 7 7 8 9 9 6 7 9 9 8 6 6 7 9 9 8 6 3 3 6 8 9 11 13 17 16 16 14 11 11 12 13 12 12 13 12 8 6 8 4 5 6 6 4 6 9 10 6 3 3 1 3 2
25 25 24 24 22 21 21 20 20 19 17 15 11 6 5 7 11 9 6 7 7 8 10 13 12 8 7 7 9 9 8 7 7 6 8 8 9 6 7 6 8 5 7 6 5 7 7 8 7 6 6 1 7 8 7 4 9 9 14 13 12 13 11 11 13 12 13 14 12 10 10 7 8 4 4 5 4 6 10 9 7 5 5 5 4 2 4
25 24 24 23 22 21 20 20 20 20 19 14 9 8 7 8 9 9 4 7 8 9 4 5 6 12 13 12 11 10 9 10 8 8 8 8 3 5 10 10 7 5 0 5 2 4 7 4 6 5 4 1 3 3 7 7 5 5 9 14 13 14 10 10 11 13 13 13 12 11 9 8 8 8 4 3 5 10 5 4 5 4 4 6 3 6 5
25 24 24 23 22 21 20 19 19 19 19 15 8 7 3 9 12 13 11 11 9 13 12 12 10 15 11 12 10 9 8 8 7 8 8 9 5 10 9 4 4 4 3 2 5 7 5 2 4 6 2 3 0 5 5 8 9 4 5 7 9 11 12 12 13 10 10 12 14 13 12 5 6 3 8 11 10 4 4 8 4 4 2 6 6 6 6
25 24 23 23 21 20 19 19 19 18 18 16 10 7 6 7 11 13 12 9 6 10 13 12 15 16 15 14 13 13 13 12 9 8 7 9 7 5 6 4 5 5 2 3 5 4 3 3 4 4 2 3 3 3 3 5 7 8 9 7 8 4 6 11 11 9 10 12 13 8 4 3 5 3 4 9 10 5 7 7 4 7 3 7 7 7 7
25 25 24 23 22 21 20 19 18 17 17 15 10 7 8 6 10 11 13 8 8 12 9 6 7 12 14 15 16 15 15 16 15 11 10 9 6 8 8 9 10 6 4 6 6 2 3 4 6 4 4 3 4 5 6 6 5 3 7 5 9 7 9 4 5 3 7 7 6 5 5 5 4 5 5 6 10 9 8 8 7 6 6 7 6 7 8
24 24 24 23 21 21 19 19 18 16 16 17 11 6 7 3 7 10 10 10 9 8 9 11 12 15 16 18 18 16 15 13 13 11 10 9 9 7 8 7 7 3 5 3 6 7 6 5 7 7 7 5 6 7 7 7 7 4 5 6 7 3 5 6 8 10 8 11 11 9 6 3 5 7 9 9 10 10 9 8 8 7 8 8 8 9 8
24 24 23 23 22 21 20 19 18 15 14 15 9 6 5 4 5 6 7 7 6 7 9 12 11 9 8 8 5 6 9 11 11 9 6 8 9 7 5 6 6 5 4 5 4 6 5 6 6 6 7 7 7 7 6 5 6 4 7 7 7 7 6 7 8 7 4 5 3 7 7 5 8 10 12 9 8 9 10 9 8 10 11 12 11 11 12
23 24 23 22 22 21 21 20 17 15 13 13 11 6 5 4 5 9 8 7 6 7 7 6 9 11 12 10 9 10 10 6 7 9 9 10 11 10 8 3 3 6 7 7 5 7 6 8 6 5 8 4 5 7 6 8 5 4 7 6 6 7 2 8 9 9 9 11 11 11 11 13 11 9 10 11 9 8 10 10 10 11 13 13 14 14 11
24 23 23 23 22 22 21 19 17 15 13 11 10 6 4 4 7 8 7 6 1 2 6 10 9 7 6 8 10 8 7 9 9 10 12 12 12 13 12 9 10 7 8 7 7 8 7 7 7 8 8 7 5 8 8 7 10 8 10 9 7 4 2 7 6 10 11 13 15 15 15 16 16 14 12 11 9 9 10 11 12 12 13 14 15 15 14
23 23 23 23 23 22 20 19 18 15 11 9 7 5 4 4 5 9 7 5 4 4 7 9 8 6 5 11 9 8 11 12 11 11 12 13 14 12 11 11 11 9 8 8 7 8 7 9 9 9 7 7 7 9 10 11 10 10 10 10 8 10 12 10 10 11 12 11 11 10 12 10 10 13 11 7 9 10 12 12 12 11 12 13 15 15 15
23 23 23 23 23 22 21 20 17 12 8 8 6 6 3 4 4 7 7 6 7 7 8 9 9 11 12 15 11 9 8 8 9 10 11 11 12 12 11 11 10 9 8 8 8 7 8 9 9 7 8 8 9 9 8 10 11 12 13 12 9 11 12 11 12 12 12 12 12 10 11 13 12 11 11 10 7 10 13 12 12 12 12 12 14 15 15
24 24 23 24 23 22 21 18 14 10 4 3 4 3 3 4 4 6 7 7 6 6 7 9 10 10 7 6 4 5 6 7 8 9 9 10 11 10 10 10 10 9 8 8 8 8 9 10 9 9 8 6 6 10 9 10 10 13 12 10 10 10 11 14 15 14 15 15 13 11 9 11 12 15 14 12 11 11 12 12 12 12 12 13 13 14 15
24 25 24 22 20 19 19 14 8 5 6 4 3 2 3 3 3 5 5 5 5 3 4 5 6 3 8 8 8 6 5 6 7 9 11 9 9 9 9 9 9 9 8 8 6 9 8 8 9 10 11 9 9 8 10 10 12 13 12 11 11 10 11 12 13 14 14 13 13 14 14 14 13 15 14 13 12 12 12 13 13 13 14 13 14 14 13
24 23 21 20 20 18 14 8 4 1 4 3 2 2 1 1 4 1 4 5 6 4 3 3 7 9 9 4 5 6 7 8 8 8 9 9 9 9 8 8 8 7 8 8 8 10 7 8 8 9 8 8 5 4 7 9 13 14 18 17 15 14 13 13 13 14 14 13 12 14 15 16 15 15 17 17 16 15 15 13 12 12 12 13 13 13 12
24 20 19 17 17 15 6 2 3 5 3 2 2 5 4 5 4 2 2 3 3 3 3 5 6 5 4 4 5 7 8 7 6 6 5 5 7 7 8 9 8 8 8 9 8 6 9 10 10 10 9 7 5 5 5 8 13 17 19 16 13 13 12 12 12 13 15 15 16 17 19 19 18 18 15 13 13 11 10 12 12 12 12 12 11 9 8
20 17 16 15 11 4 1 5 4 4 2 6 7 6 6 3 1 1 6 4 2 2 2 3 5 5 5 5 8 7 9 6 5 4 5 3 5 3 6 6 8 8 7 6 4 4 3 7 8 10 9 4 4 5 8 14 16 20 19 17 16 15 16 17 18 17 16 15 15 17 18 17 17 18 19 18 18 17 16 15 14 12 12 11 10 8 7
16 15 14 9 2 3 7 8 6 8 7 2 1 1 4 6 3 3 4 4 1 1 1 3 3 4 6 6 5 3 8 6 5 6 5 3 3 0 2 3 4 3 4 7 4 5 6 5 7 9 5 6 6 7 10 14 17 19 21 23 23 22 21 22 20 19 19 17 17 19 20 18 19 17 16 16 16 15 14 13 13 13 10 7 7 8 4
14 11 8 5 3 7 10 13 7 3 3 2 2 3 5 4 1 5 6 1 2 2 2 2 2 5 5 4 4 4 5 4 4 3 3 2 2 3 1 1 3 4 2 3 6 7 6 3 4 6 6 3 5 7 10 13 15 16 18 22 24 24 25 23 25 25 24 20 20 20 20 19 19 19 17 16 14 12 12 12 12 12 8 6 2 2 4
12 7 6 2 6 7 5 8 6 0 2 3 4 7 10 7 4 5 1 2 2 2 2 2 3 3 3 5 5 3 3 5 2 2 1 2 0 1 1 0 3 4 2 3 4 2 4 1 1 5 2 3 5 5 13 18 22 23 23 23 23 19 19 21 20 20 20 21 22 20 20 20 21 20 17 16 16 14 13 12 12 9 8 7 6 5 4
7 2 6 9 6 3 5 4 5 5 4 4 8 13 11 8 4 2 1 2 2 0 3 2 2 2 2 4 4 4 4 6 5 2 0 2 2 0 0 1 2 2 2 3 3 3 2 2 1 5 4 2 7 13 17 17 18 17 15 13 14 17 19 19 21 22 19 17 19 18 18 18 18 17 16 16 14 12 13 13 10 8 9 11 10 8 7
3 9 7 5 6 3 3 5 4 4 11 17 14 7 5 5 1 3 3 3 2 3 3 3 2 2 3 2 4 4 3 4 4 4 4 3 1 2 0 1 2 3 3 3 2 1 3 2 2 3 3 7 10 12 18 20 18 17 15 12 12 11 14 18 19 18 19 21 21 22 21 19 18 18 16 15 14 14 12 10 6 6 7 8 9 9 8
6 6 6 7 3 7 5 3 4 7 5 6 5 3 4 3 2 2 1 0 2 1 2 2 3 0 3 4 4 3 0 4 6 5 5 3 2 3 1 3 2 2 2 2 1 1 3 1 2 2 4 10 11 16 17 20 21 21 17 11 10 7 6 4 2 6 11 14 16 17 17 17 18 17 14 12 11 12 10 9 9 9 9 9 9 8 8
6 4 2 6 6 5 6 6 10 7 4 5 5 6 3 3 2 3 2 2 1 3 2 5 5 2 2 4 7 4 3 2 5 6 6 2 1 2 0 1 2 2 4 4 3 1 2 4 3 2 6 11 13 17 18 21 22 22 19 18 17 16 16 15 12 5 7 9 8 11 17 17 15 14 13 10 8 10 11 11 7 6 8 8 8 8 9
6 4 2 4 5 1 2 6 6 7 4 3 2 3 3 3 5 3 3 6 6 4 1 4 5 4 1 2 3 4 2 3 3 3 3 3 2 2 1 2 0 0 3 4 2 1 3 2 3 8 14 10 14 16 15 18 23 23 23 23 22 19 18 18 20 20 15 9 8 10 13 13 11 7 8 14 15 11 8 8 6 5 6 6 10 10 10
4 4 3 5 5 3 3 5 3 3 4 4 4 3 5 3 4 4 4 7 7 4 6 6 8 9 9 8 5 5 2 1 2 1 2 4 2 3 5 1 1 2 4 4 5 4 3 3 7 11 14 17 15 14 17 18 22 25 27 26 22 22 23 21 23 23 20 18 17 16 14 12 7 11 13 12 8 7 7 7 6 4 8 6 8 11 10
7 5 3 4 4 1 1 4 6 3 2 4 3 2 5 4 6 6 5 5 3 3 5 4 3 5 3 4 2 1 4 2 3 2 2 5 1 1 3 5 4 8 6 3 4 5 5 8 9 12 12 14 15 15 16 16 16 18 22 23 23 22 22 24 25 23 22 20 19 21 19 19 20 19 20 17 13 10 7 10 11 13 12 13 12 12 12
4 4 3 1 2 4 3 3 5 4 3 3 4 5 9 8 9 7 6 9 8 7 8 8 8 8 9 7 6 5 1 3 4 2 6 3 4 7 5 5 9 6 2 5 6 10 9 6 11 12 13 13 13 16 16 17 16 15 18 21 22 23 25 26 25 25 22 19 22 23 20 20 19 20 23 19 17 15 14 13 16 14 13 12 11 11 10
2 4 3 2 2 3 2 2 4 3 4 7 4 6 8 10 9 9 9 6 5 7 7 6 6 7 7 6 3 1 5 6 5 5 6 6 8 8 7 8 6 6 8 9 7 8 7 12 12 13 14 15 16 16 16 14 15 16 14 17 20 21 22 23 23 21 19 18 22 23 20 20 18 19 21 18 16 18 20 15 13 15 17 15 13 13 14
4 3 3 3 2 2 2 2 1 4 6 6 8 8 8 8 7 8 7 7 7 6 6 7 6 5 6 5 4 5 6 6 6 7 6 5 7 9 8 4 4 9 10 10 9 12 12 12 14 13 12 12 12 13 13 15 16 16 16 17 16 17 18 19 18 19 19 20 20 20 19 18 18 20 21 19 19 21 19 16 17 15 17 18 15 15 15
2 3 1 2 4 4 5 5 7 8 9 9 10 9 10 8 7 8 8 8 8 7 5 5 4 4 6 6 3 5 5 5 6 6 5 7 8 5 4 8 7 5 7 11 10 8 11 12 11 13 15 13 14 14 14 12 14 17 16 15 17 16 16 16 18 18 18 19 20 19 17 19 19 18 17 19 20 19 16 16 18 17 18 18 15 16 16
3 1 2 3 4 4 8 8 6 7 8 8 8 8 8 8 8 9 9 8 7 7 7 7 7 4 1 3 4 6 5 4 6 7 5 4 3 5 3 7 6 3 3 6 9 8 10 11 13 11 11 13 15 15 14 13 12 14 16 16 16 17 17 17 17 17 16 16 16 16 17 17 17 17 17 16 15 14 14 15 15 15 17 16 16 16 16
3 2 3 4 4 6 7 7 7 8 9 9 10 10 11 11 11 10 10 9 9 8 7 7 5 3 4 5 6 6 7 7 6 4 5 5 5 4 4 4 5 6 7 7 9 9 10 10 11 12 13 14 14 14 13 14 13 13 13 14 13 13 14 16 16 16 15 14 14 14 14 15 15 15 14 14 14 12 12 12 13 13 13 14 14 14 15
4 4 5 4 6 7 7 6 8 9 9 10 10 10 10 11 11 11 10 10 8 7 5 3 4 5 7 5 3 5 6 7 7 3 7 9 7 6 6 5 6 5 4 6 9 10 10 10 10 11 14 14 14 13 14 13 12 12 13 12 11 11 12 14 16 15 14 13 14 15 14 13 13 12 12 12 10 9 10 12 11 11 12 12 12 13 14
2 3 5 8 9 8 7 9 9 10 10 10 10 11 11 11 11 11 11 10 10 8 7 8 7 5 4 4 3 3 4 4 6 9 7 7 6 6 6 6 7 9 7 7 5 4 8 9 10 10 12 12 13 13 13 13 14 13 12 12 11 11 11 12 13 12 14 14 14 14 14 13 11 12 10 10 10 10 11 12 11 11 12 12 13 13 13
2 4 7 7 7 9 9 7 7 8 8 9 9 9 10 10 11 11 11 9 8 9 10 7 6 5 4 5 5 4 3 3 5 7 9 7 5 7 7 7 5 5 7 9 7 8 8 8 9 11 10 11 12 12 12 12 13 13 12 12 11 11 11 12 11 11 11 10 11 12 12 12 12 11 11 11 11 10 10 10 10 11 11 11 11 12 12
Wind_Direction
343 341 339 339 338 336 334 338 338 339 341 344 352 325 324 342 327 335 355 347 325 324 332 338 331 340 348 324 296 327 301 314 327 320 327 315 319 303 300 304 321 313 306 282 272 289 282 288 265 273 306 55 33 5 338 336 303 286 243 211 211 55 232 250 236 186 208 202 200 193 211 204 200 205 212 207 209 203 215 212 201 208 196 213 208 229 175
340 337 336 336 336 335 335 335 338 338 349 347 333 328 338 311 319 328 15 337 322 324 353 344 343 343 335 326 331 328 328 323 335 333 340 335 321 317 309 306 308 307 307 311 287 296 292 265 260 262 319 266 35 4 335 340 343 335 18 290 149 214 211 240 209 218 193 188 192 191 198 214 208 202 203 212 212 210 213 216 213 220 205 207 206 205 231
335 333 332 332 332 334 333 334 334 338 339 341 333 320 327 317 308 359 345 340 314 354 355 337 332 337 332 333 321 342 316 11 349 330 335 339 326 312 320 323 321 302 317 305 298 268 264 290 292 314 309 309 34 354 330 336 344 356 347 318 312 284 204 206 214 202 189 186 190 192 188 202 206 207 201 206 211 209 200 211 200 228 199 214 208 206 105
330 328 328 329 330 332 331 331 333 333 337 337 333 327 307 344 319 0 327 349 303 333 324 319 338 320 339 323 332 322 315 328 343 329 342 355 327 325 311 321 318 316 327 303 286 272 259 260 272 291 282 326 307 75 311 334 346 345 325 302 305 260 253 214 227 227 204 206 261 221 196 191 210 201 207 197 211 211 209 211 218 211 204 224 216 248 129
326 326 324 327 329 330 329 328 331 330 330 340 326 307 294 323 318 348 331 325 331 336 335 335 329 324 337 303 332 312 319 331 302 28 312 2 341 325 349 328 340 336 326 332 306 289 299 272 258 271 280 305 312 317 323 321 8 320 299 332 306 264 248 229 224 243 275 335 314 338 271 209 206 210 203 205 201 211 207 209 213 197 211 220 191 226 252
322 322 322 324 327 328 328 328 328 329 326 330 319 316 337 322 340 323 1 300 318 321 325 334 314 309 301 297 314 304 313 320 320 336 330 318 35 332 39 298 348 331 331 318 307 311 309 320 359 357 359 341 312 274 169 322 25 310 344 326 300 293 241 232 238 233 238 258 336 315 271 222 219 212 209 205 202 202 212 210 212 201 217 220 180 197 222
318 318 318 319 321 320 324 325 324 327 323 324 316 313 322 320 317 315 339 305 317 303 311 304 298 294 301 317 306 294 314 315 334 336 323 317 21 352 320 317 353 338 325 315 297 306 321 333 337 8 328 324 304 297 183 180 55 334 343 323 347 292 239 247 226 230 238 221 245 276 265 250 272 269 215 207 206 202 208 213 209 211 212 223 196 183 212
314 314 313 314 313 315 316 320 316 322 324 312 312 309 312 324 327 319 323 302 295 297 298 298 294 292 297 279 223 298 310 313 327 327 326 318 354 173 283 307 332 330 316 310 293 303 310 323 313 318 323 305 322 351 12 352 347 329 345 330 25 316 178 15 300 265 236 230 225 230 254 279 270 240 231 206 204 210 205 210 209 212 216 210 215 178 199
311 310 308 308 308 308 310 311 315 310 336 327 330 312 311 313 315 313 310 306 307 308 294 290 298 294 274 268 334 319 308 312 335 315 324 320 325 319 315 324 307 304 307 297 287 287 295 290 280 295 296 299 315 327 318 329 325 312 337 320 338 280 304 309 258 235 241 222 218 218 237 250 237 235 226 243 222 208 201 207 205 206 210 213 211 214 207
306 305 305 304 304 302 303 306 308 293 222 299 301 291 314 312 302 287 293 293 296 296 295 289 286 275 339 324 306 304 312 307 314 310 311 281 269 292 304 309 305 289 290 296 291 292 286 288 290 288 286 282 284 275 283 300 305 313 295 321 310 333 318 263 201 232 238 214 217 216 223 240 238 230 219 216 222 246 217 217 213 225 228 214 220 219 211
303 301 301 301 300 302 306 306 300 297 206 291 287 289 298 305 311 306 294 287 290 296 306 300 290 318 304 288 296 294 291 298 296 302 300 296 293 302 301 293 296 300 297 318 313 296 286 281 282 279 272 271 274 278 272 261 255 268 278 297 289 301 287 283 289 243 219 208 201 212 218 226 223 210 223 229 227 212 220 206 207 210 215 230 222 227 200
299 298 297 297 299 303 304 301 296 289 258 254 258 265 266 285 289 287 283 275 288 305 299 296 303 305 296 300 290 290 289 294 302 298 287 292 297 297 289 280 280 282 313 319 296 286 286 278 271 263 263 261 261 263 264 267 267 252 259 270 281 296 249 235 250 269 215 149 131 199 218 227 210 230 223 226 234 240 236 238 232 225 221 231 233 233 244
297 298 301 302 303 303 303 300 295 285 268 234 244 262 257 221 260 280 286 284 282 300 303 303 307 297 291 293 293 294 297 293 286 283 285 291 290 289 292 300 292 300 310 296 292 291 293 294 285 278 265 251 243 247 250 246 244 252 262 255 263 273 238 226 240 262 300 231 177 208 223 297 226 192 229 305 235 219 226 237 237 237 240 236 239 238 236
305 304 303 302 302 302 302 299 295 289 275 245 240 250 253 231 244 255 245 271 275 282 297 295 291 298 312 308 304 300 297 287 287 287 279 269 286 291 291 287 299 305 288 299 286 281 278 272 284 244 228 228 236 236 231 234 236 237 233 237 239 254 256 265 235 227 251 241 205 206 110 124 201 170 185 181 217 211 219 230 222 226 230 233 239 235 234
302 301 302 302 302 302 301 299 295 292 284 266 240 248 244 228 214 224 253 264 271 285 290 288 313 314 313 304 306 302 294 300 294 290 308 289 271 288 304 295 283 284 295 291 291 279 281 283 269 265 230 207 213 225 213 225 219 222 229 228 225 217 232 227 258 222 228 231 212 217 223 228 191 202 137 158 170 230 225 238 242 213 223 229 232 244 256
301 304 304 303 303 302 302 302 297 291 287 273 249 245 232 229 208 196 215 227 283 285 266 299 316 309 302 302 307 305 306 303 314 311 293 284 286 296 292 298 293 297 287 275 283 288 272 263 255 240 226 207 235 227 202 205 213 200 207 217 214 212 214 255 232 230 216 224 231 218 224 221 261 188 178 193 161 183 136 184 220 89 223 120 242 225 227
308 308 308 307 306 304 301 298 295 290 286 278 273 254 242 196 196 196 199 229 227 244 287 304 308 300 296 295 292 274 330 311 333 311 309 306 320 313 294 306 306 273 266 277 264 260 256 249 257 254 237 294 290 213 218 200 200 186 185 202 210 207 204 205 224 230 224 219 218 225 214 197 176 163 130 155 196 94 208 201 196 115 88 54 172 259 287
311 311 311 310 310 309 306 300 297 293 289 280 276 254 239 190 204 190 193 217 239 261 253 266 282 286 284 310 298 301 296 282 276 286 282 300 291 302 323 310 294 345 358 273 281 270 267 274 267 271 264 254 294 292 232 188 200 202 182 190 193 201 203 206 218 213 226 231 228 229 223 251 6 114 148 123 216 188 210 206 110 113 84 63 39 42 45
312 312 312 312 311 311 309 307 301 297 298 296 290 269 238 210 196 192 189 216 220 245 232 234 287 286 284 284 275 288 290 296 296 288 285 286 312 331 309 287 305 263 119 282 272 241 257 283 324 293 265 68 310 258 309 307 284 309 209 187 200 199 201 206 216 220 217 215 228 229 236 210 200 140 183 127 175 198 184 18 291 12 85 42 32 15 29
313 313 313 312 312 312 311 309 303 301 299 298 292 277 241 182 190 186 193 219 222 249 258 258 261 270 282 281 280 273 274 262 261 274 280 285 325 320 307 264 53 281 291 346 276 297 287 298 288 268 245 293 25 326 275 263 249 246 285 208 218 197 203 202 203 208 226 224 219 218 222 173 237 288 189 177 234 56 320 321 323 237 43 10 23 355 28
313 312 312 313 314 313 311 309 305 299 298 302 303 288 280 190 193 197 206 215 233 260 265 254 251 259 268 275 280 285 283 280 284 277 283 286 309 309 284 349 353 327 290 249 312 321 325 300 342 307 321 299 11 314 270 302 293 245 227 229 244 16 261 209 206 198 216 212 221 219 240 47 23 269 233 38 28 355 346 328 316 342 355 20 332 356 7
313 313 314 315 315 314 312 309 307 299 297 303 302 281 269 197 195 200 206 204 223 232 256 297 288 278 274 274 277 273 270 270 270 274 283 278 274 268 283 293 293 295 321 326 288 300 33 332 296 296 310 287 243 269 280 270 265 274 220 209 233 181 242 346 277 230 249 247 226 31 346 348 323 359 23 343 357 349 354 330 334 319 347 354 325 343 340
314 314 315 315 314 313 313 311 311 307 304 302 302 258 268 174 195 199 193 213 225 254 263 271 273 273 271 270 267 264 263 260 263 258 252 265 277 262 262 271 273 281 289 293 298 310 305 298 302 332 309 309 315 297 268 264 271 285 255 231 266 31 311 342 287 264 275 272 272 267 278 314 292 336 349 337 334 336 344 346 336 345 331 334 332 338 339
315 316 315 314 314 313 312 312 314 307 304 302 293 278 270 214 169 160 201 217 226 256 262 251 257 266 271 273 261 244 236 236 251 263 244 239 257 264 259 254 280 285 276 304 330 297 306 300 300 306 289 295 302 270 271 260 266 286 274 239 239 231 216 241 256 275 305 278 298 257 265 316 345 311 315 306 309 327 336 341 346 335 331 333 334 335 335
315 316 315 315 315 314 314 315 316 309 306 302 298 262 251 249 170 174 187 211 214 226 259 285 254 264 270 288 293 269 260 262 217 220 233 227 238 257 269 321 311 291 297 298 292 286 274 275 278 267 278 288 285 281 278 284 272 322 275 258 254 236 262 260 243 266 260 264 275 285 310 307 300 302 291 301 305 320 345 349 342 339 336 332 332 324 318
317 317 317 316 316 318 319 319 317 311 305 301 296 282 242 240 179 185 203 233 287 206 251 271 287 291 283 268 257 254 256 247 242 235 230 230 232 244 259 274 279 278 285 285 278 277 287 281 276 274 279 284 255 275 280 280 284 281 275 269 268 318 104 247 244 249 248 246 254 267 282 287 285 283 282 274 308 345 332 331 329 325 330 334 331 330 319
318 318 317 317 319 321 320 319 316 310 298 281 266 252 235 253 174 181 195 201 221 250 230 253 273 283 302 287 284 258 233 232 235 240 240 235 239 240 245 255 263 267 269 273 270 275 270 274 273 275 272 286 305 288 293 284 277 275 268 264 253 241 239 241 250 249 244 245 244 234 247 255 253 247 257 324 352 330 325 323 319 325 325 326 321 321 319
318 318 317 319 322 321 319 318 319 314 292 273 257 248 217 222 216 206 215 208 214 262 310 310 304 319 318 280 266 254 251 246 248 243 241 240 235 236 242 246 250 260 260 265 271 255 262 265 268 278 274 280 288 275 270 277 279 270 260 256 242 243 245 245 241 239 242 238 242 252 266 271 273 295 296 282 310 327 311 308 313 314 313 312 311 311 313
318 319 318 320 321 320 320 320 317 316 305 240 242 236 231 229 212 211 213 218 228 248 265 280 293 284 286 356 330 248 236 239 228 230 235 237 235 235 239 241 246 251 260 265 264 275 272 271 281 282 280 319 305 284 290 273 260 257 256 253 245 248 264 261 263 270 267 272 272 267 272 273 281 286 293 301 301 297 300 298 298 300 302 304 303 305 303
319 320 322 321 320 321 322 317 308 260 230 215 169 219 240 131 208 211 207 201 198 234 264 292 298 314 340 306 292 293 269 234 236 241 243 238 237 238 238 239 241 242 252 258 265 263 266 272 276 280 285 302 283 291 279 278 272 271 277 273 273 264 251 249 246 245 254 260 272 276 281 279 271 274 277 281 286 288 288 292 294 297 298 297 296 298 298
320 322 322 320 321 325 326 319 261 156 217 192 187 220 315 117 114 176 196 200 195 221 257 257 271 308 300 265 272 283 287 272 266 260 249 245 242 238 233 237 236 232 234 240 245 251 267 265 271 271 280 271 273 272 275 286 281 283 278 282 285 282 273 265 265 267 270 276 277 271 265 266 271 270 266 268 272 273 273 275 280 280 282 290 288 290 294
323 321 319 318 325 328 335 19 88 196 209 160 313 360 10 20 45 75 133 192 164 210 250 281 293 284 302 316 337 318 290 284 263 248 252 263 258 236 236 220 235 221 231 238 242 258 247 255 260 266 267 276 276 248 249 253 260 262 269 278 279 281 282 278 275 272 266 261 260 260 256 254 251 255 263 264 266 261 266 274 280 286 292 286 282 284 296
325 319 319 322 327 345 29 146 169 283 85 66 71 112 83 57 5 187 143 134 148 261 353 292 280 304 291 351 338 341 344 329 302 306 286 230 240 239 236 225 235 241 222 248 220 252 240 242 250 256 257 273 257 259 254 247 245 251 257 266 269 270 270 271 271 268 264 259 253 250 252 250 251 252 258 262 265 266 266 268 274 277 273 268 261 258 257
318 324 313 318 340 166 143 147 145 128 132 155 217 132 123 131 173 338 141 161 122 63 341 290 292 298 291 325 301 34 14 345 323 11 336 355 323 73 261 228 181 246 172 214 228 240 254 276 264 273 296 254 244 258 253 251 250 262 264 263 263 262 261 263 262 260 258 257 256 253 254 257 257 260 266 268 266 257 255 261 261 260 251 243 252 261 232
323 313 327 297 254 166 166 162 162 205 24 37 49 85 108 171 263 165 192 192 222 197 211 239 276 301 313 324 330 341 20 334 323 3 321 340 338 348 29 249 108 201 221 198 250 237 265 263 348 293 266 284 255 250 257 272 278 268 265 267 263 261 261 259 256 253 253 250 250 251 249 246 246 245 245 248 251 257 261 257 255 242 225 217 239 264 193
327 326 268 229 153 178 186 222 260 52 211 33 32 92 123 139 148 179 182 73 307 317 266 308 317 295 314 316 332 325 345 309 299 297 229 244 136 88 1 138 248 224 191 185 243 250 243 41 247 253 1 297 255 255 277 281 278 273 265 258 258 254 249 243 244 239 230 232 236 242 244 242 239 237 239 239 240 246 253 258 244 227 221 195 155 132 138
326 235 143 177 193 218 224 46 61 38 15 63 85 109 130 128 99 144 197 276 201 245 290 282 264 267 229 292 278 268 312 356 353 331 135 13 22 30 273 300 248 313 311 274 279 273 263 90 297 288 283 262 277 279 290 303 307 308 304 287 263 252 248 246 238 240 240 228 216 217 225 232 230 226 226 229 231 235 241 238 219 209 202 179 162 162 171
106 165 182 185 209 242 64 71 35 106 106 112 129 142 162 221 192 150 187 235 179 203 182 206 276 286 231 267 321 359 316 316 320 346 41 31 299 78 157 215 305 307 298 297 277 353 268 259 255 280 280 264 269 314 330 327 322 322 313 292 279 263 253 242 235 233 237 234 226 225 228 227 226 216 216 218 217 222 226 217 183 186 176 175 165 153 152
177 189 215 238 322 38 12 46 104 168 188 142 195 232 205 186 252 254 66 96 190 312 114 245 334 207 244 270 287 168 203 323 323 357 15 51 341 63 355 359 91 260 281 268 318 156 313 306 259 277 300 327 344 353 341 338 343 353 343 358 10 354 330 8 93 207 205 202 204 205 205 207 203 201 203 206 207 215 190 188 189 186 177 164 156 156 145
217 230 359 45 38 58 90 133 157 169 172 220 208 243 350 158 300 13 330 7 54 53 335 355 357 320 259 322 337 354 143 291 347 359 345 359 165 345 240 304 2 320 342 1 14 84 0 340 332 315 0 351 356 354 357 353 357 3 4 10 18 28 28 23 26 70 173 205 219 199 188 189 192 187 184 184 183 189 173 170 167 180 178 170 158 152 131
8 348 3 38 39 329 92 141 182 218 244 325 22 16 14 22 30 351 331 22 29 27 53 317 334 351 81 266 238 313 125 215 244 269 275 304 73 258 266 21 168 357 350 10 0 295 330 331 313 7 6 356 3 353 356 6 6 10 13 14 24 30 25 35 39 34 40 77 123 155 174 168 167 179 184 176 177 170 141 148 153 188 172 142 140 136 123
359 337 344 280 286 298 244 213 262 360 40 348 3 345 20 41 15 38 11 9 15 355 0 346 1 356 356 357 344 332 53 125 316 271 302 19 71 331 356 67 200 8 30 346 320 344 334 1 5 20 1 2 4 4 8 16 16 13 15 17 19 27 35 39 39 33 35 50 55 49 46 57 109 151 158 158 144 124 137 134 147 140 112 83 81 97 98
239 247 268 273 228 182 307 30 4 39 11 354 1 359 355 18 16 357 15 35 16 355 32 163 222 266 264 283 284 189 5 14 322 311 351 357 197 156 3 23 10 36 8 323 1 338 11 14 21 16 354 4 4 7 12 15 21 23 20 22 22 26 34 43 46 46 44 45 53 50 42 42 40 44 45 56 71 75 91 102 87 74 69 78 79 76 78
212 230 243 330 3 13 322 26 332 42 19 22 6 3 347 3 14 16 14 17 351 13 9 12 7 358 10 359 349 349 345 173 201 236 45 32 19 26 35 26 28 39 342 36 22 30 16 14 4 0 4 1 6 8 11 16 18 27 34 28 26 29 35 41 43 46 43 42 54 57 48 49 44 52 55 49 46 53 51 69 81 74 64 57 61 68 70
338 30 2 6 34 6 40 34 340 50 3 18 360 4 359 0 351 6 10 358 346 3 5 27 22 25 15 340 290 28 352 3 20 6 35 14 47 35 35 30 23 29 33 30 25 24 19 19 352 356 3 6 4 10 6 6 12 18 27 34 36 37 39 39 41 44 44 43 52 57 52 50 46 55 59 48 45 47 48 28 45 67 68 62 55 58 57
31 0 20 37 33 1 64 102 354 25 35 16 21 11 9 17 5 360 5 343 342 8 5 12 17 20 55 30 23 0 346 348 17 22 9 35 40 43 39 56 33 36 39 39 34 29 22 13 2 356 2 8 2 4 8 14 18 16 20 30 37 39 41 47 49 47 43 44 47 49 51 50 45 51 58 51 50 52 46 41 44 48 66 65 56 56 58
64 20 9 352 35 54 35 40 36 33 23 20 20 18 20 13 15 17 4 346 345 340 346 326 304 354 6 33 44 64 30 13 36 8 356 42 36 57 42 38 39 28 27 26 21 15 8 359 5 9 9 15 22 17 14 14 18 20 20 21 30 38 41 47 50 52 52 51 55 53 51 52 51 49 51 52 51 48 45 45 49 47 55 58 55 57 57
58 333 358 43 48 25 34 38 30 48 41 24 16 10 25 23 12 16 5 346 342 343 343 341 348 321 66 53 2 30 51 46 44 45 26 45 38 35 30 37 47 50 33 31 29 2 1 0 14 20 360 9 23 24 23 21 19 18 23 29 28 31 34 42 46 49 52 56 59 58 58 57 57 55 51 50 52 53 50 46 44 42 50 53 53 56 58
21 339 38 76 47 36 32 25 13 37 32 27 17 8 8 13 15 9 357 347 358 358 356 360 9 341 15 350 28 27 37 24 32 35 29 46 48 41 37 28 11 45 27 15 21 14 11 14 18 7 11 21 21 20 23 26 27 35 38 34 25 31 36 40 42 44 48 53 56 56 61 67 67 64 60 58 57 50 51 51 48 44 43 47 50 52 52
31 40 12 33 51 45 37 37 13 33 20 20 14 15 1 9 3 12 358 346 355 351 353 52 31 8 20 355 31 34 41 32 36 26 36 40 30 31 39 52 30 28 14 2 13 359 9 8 10 13 11 13 19 20 24 29 24 34 41 38 37 36 35 42 48 51 54 54 56 63 66 67 68 68 65 63 61 59 53 50 48 50 49 48 48 48 50
48 78 59 17 25 35 13 29 17 17 19 17 11 14 357 10 1 0 354 345 351 5 20 9 9 16 14 24 10 29 36 23 46 41 32 34 14 20 30 21 349 329 360 32 43 6 5 10 12 11 7 11 19 20 18 21 30 30 33 51 49 49 45 44 54 58 60 62 63 68 70 71 73 75 74 71 67 60 55 52 50 53 56 55 54 54 54
60 36 47 63 41 28 17 27 31 24 21 17 11 11 2 10 360 359 343 352 5 11 17 13 9 16 17 22 17 19 14 28 42 29 38 44 17 15 24 15 357 288 348 8 9 21 9 12 14 9 9 14 16 21 21 23 25 30 28 36 45 51 56 60 62 63 61 58 60 63 67 71 76 78 78 74 71 64 59 55 51 55 59 60 60 60 61